Location: Eastview
(35.0756°N, 88.5453°W)
Time: 22:35:07
(UTC+00:00)

SKYMED 3 - Pass Details

Date: 22 November 2019
Orbit: 621 x 623 km, 97.9° (Epoch: 12 December)

Event Time Altitude Azimuth Distance (km) Brightness Sun altitude
Rises 23:45:20 0° 15° (NNE) 2,905 7.7 -12.4°
Reaches altitude 10° 23:47:32 10° 18° (NNE) 1,995 6.8 -12.9°
Maximum altitude 23:51:52 67° 101° (E) 674 4.5 -13.7°
Drops below altitude 10° 23:56:09 10° 184° (S) 1,981 7.4 -14.6°
Sets 23:58:20 0° 187° (S) 2,883 8.3 -15.0°
